Time,TemperatureF,DewpointF,PressureIn,WindDirection,WindDirectionDegrees,WindSpeedMPH,WindSpeedGustMPH,Humidity,HourlyPrecipIn,Conditions,Clouds,dailyrainin,SoftwareType,DateUTC
2013-02-16 00:00:00,59.2,53.4,29.97,NNW,348,2.8,3.5,81,0.00,BKN,,0.64,WeatherDisplay:10.37,2013-02-16 05:00:00,
2013-02-16 00:05:00,59.2,53.7,29.97,NNE,21,4.0,6.9,82,0.00,BKN,,0.00,WeatherDisplay:10.37,2013-02-16 05:05:00,
2013-02-16 00:10:00,59.2,53.7,29.97,NW,326,0.7,3.5,82,0.00,BKN,,0.00,WeatherDisplay:10.37,2013-02-16 05:10:00,
2013-02-16 00:15:00,59.2,53.7,29.97,NW,319,1.7,3.5,82,0.00,BKN,,0.00,WeatherDisplay:10.37,2013-02-16 05:15:00,
2013-02-16 00:20:00,59.2,53.7,29.97,NNE,16,0.8,1.1,82,0.00,BKN,,0.00,WeatherDisplay:10.37,2013-02-16 05:20:00,
2013-02-16 00:23:00,59.1,53.6,29.97,NW,321,1.6,3.5,82,0.00,BKN,,0.00,WeatherDisplay:10.37,2013-02-16 05:23:00,
2013-02-16 00:28:00,59.1,53.6,29.97,North,349,1.2,3.5,82,0.00,BKN,,0.00,WeatherDisplay:10.37,2013-02-16 05:28:00,
2013-02-16 00:33:00,59.0,53.5,29.97,NNW,348,1.4,3.5,82,0.00,BKN,,0.00,WeatherDisplay:10.37,2013-02-16 05:33:00,
2013-02-16 00:38:00,59.1,53.6,29.97,NE,44,2.3,4.0,82,0.00,BKN,,0.00,WeatherDisplay:10.37,2013-02-16 05:38:00,
2013-02-16 00:43:00,59.1,53.3,29.97,North,356,2.3,4.6,81,0.00,BKN,,0.00,WeatherDisplay:10.37,2013-02-16 05:43:00,
2013-02-16 00:48:00,59.1,53.3,29.96,NNE,12,1.9,3.5,81,0.00,BKN,,0.00,WeatherDisplay:10.37,2013-02-16 05:48:00,
2013-02-16 00:53:00,59.0,53.2,29.97,NNW,340,2.9,4.6,81,0.00,BKN,,0.00,WeatherDisplay:10.37,2013-02-16 05:53:00,
2013-02-16 00:58:00,59.0,53.2,29.97,NNW,342,3.2,4.0,81,0.00,BKN,,0.00,WeatherDisplay:10.37,2013-02-16 05:58:00,
2013-02-16 01:03:00,59.0,53.2,29.97,NNE,29,3.1,3.5,81,0.00,BKN,,0.00,WeatherDisplay:10.37,2013-02-16 06:03:00,
2013-02-16 01:08:00,58.9,53.1,29.96,NNE,19,2.4,4.6,81,0.00,BKN,,0.00,WeatherDisplay:10.37,2013-02-16 06:08:00,
2013-02-16 01:13:00,59.0,53.2,29.96,NNE,13,2.9,4.6,81,0.00,BKN,,0.00,WeatherDisplay:10.37,2013-02-16 06:13:00,
2013-02-16 01:18:00,59.1,52.9,29.96,NNE,26,1.9,3.5,80,0.00,BKN,,0.00,WeatherDisplay:10.37,2013-02-16 06:18:00,
2013-02-16 01:23:00,59.1,52.9,29.96,North,9,2.8,4.6,80,0.00,BKN,,0.00,WeatherDisplay:10.37,2013-02-16 06:23:00,
2013-02-16 01:28:00,59.1,53.3,29.96,NNE,12,1.8,3.5,81,0.00,BKN,,0.00,WeatherDisplay:10.37,2013-02-16 06:28:00,
2013-02-16 01:33:00,59.0,53.2,29.95,NNE,13,2.9,4.6,81,0.00,BKN,,0.00,WeatherDisplay:10.37,2013-02-16 06:33:00,
2013-02-16 01:38:00,59.0,53.2,29.95,NNW,347,2.7,3.5,81,0.00,BKN,,0.00,WeatherDisplay:10.37,2013-02-16 06:38:00,
2013-02-16 01:43:00,59.0,53.2,29.95,NNE,14,2.1,3.5,81,0.00,BKN,,0.00,WeatherDisplay:10.37,2013-02-16 06:43:00,
2013-02-16 01:48:00,58.9,52.7,29.95,NNW,341,3.8,5.8,80,0.00,BKN,,0.00,WeatherDisplay:10.37,2013-02-16 06:48:00,
2013-02-16 01:53:00,58.9,52.7,29.95,North,9,2.1,3.5,80,0.00,BKN,,0.00,WeatherDisplay:10.37,2013-02-16 06:53:00,
2013-02-16 01:58:00,58.8,53.0,29.94,NNE,19,2.2,3.5,81,0.00,BKN,,0.00,WeatherDisplay:10.37,2013-02-16 06:58:00,
2013-02-16 02:03:00,58.8,53.0,29.94,NE,40,1.7,4.6,81,0.00,BKN,,0.00,WeatherDisplay:10.37,2013-02-16 07:03:00,
2013-02-16 02:08:00,58.7,52.9,29.95,NNW,340,1.7,3.5,81,0.00,BKN,,0.00,WeatherDisplay:10.37,2013-02-16 07:08:00,
2013-02-16 02:13:00,58.7,53.2,29.94,NNW,340,2.0,3.5,82,0.00,BKN,,0.00,WeatherDisplay:10.37,2013-02-16 07:13:00,
2013-02-16 02:18:00,58.7,53.2,29.94,NNE,12,3.3,5.8,82,0.00,BKN,,0.00,WeatherDisplay:10.37,2013-02-16 07:18:00,
2013-02-16 02:23:00,58.8,53.3,29.94,NE,37,4.7,5.0,82,0.00,BKN,,0.00,WeatherDisplay:10.37,2013-02-16 07:23:00,
2013-02-16 02:28:00,58.8,53.3,29.94,North,9,0.6,3.5,82,0.00,BKN,,0.00,WeatherDisplay:10.37,2013-02-16 07:28:00,
2013-02-16 02:33:00,58.8,53.0,29.94,North,357,4.9,6.0,81,0.00,BKN,,0.00,WeatherDisplay:10.37,2013-02-16 07:33:00,
2013-02-16 02:38:00,58.9,53.1,29.94,NW,323,4.6,8.1,81,0.00,BKN,,0.00,WeatherDisplay:10.37,2013-02-16 07:38:00,
2013-02-16 02:43:00,58.9,53.1,29.94,North,354,3.7,4.6,81,0.00,BKN,,0.00,WeatherDisplay:10.37,2013-02-16 07:43:00,
2013-02-16 02:48:00,59.0,53.2,29.94,NNW,335,3.4,5.8,81,0.00,BKN,,0.00,WeatherDisplay:10.37,2013-02-16 07:48:00,
2013-02-16 02:53:00,59.0,53.2,29.94,NNW,347,3.5,4.0,81,0.00,BKN,,0.00,WeatherDisplay:10.37,2013-02-16 07:53:00,
2013-02-16 02:58:00,59.0,53.2,29.94,NNW,338,4.4,6.0,81,0.00,BKN,,0.00,WeatherDisplay:10.37,2013-02-16 07:58:00,
2013-02-16 03:03:00,59.1,53.3,29.94,NNE,25,3.7,5.8,81,0.00,BKN,,0.00,WeatherDisplay:10.37,2013-02-16 08:03:00,
2013-02-16 03:08:00,59.1,53.6,29.94,NNE,26,4.2,5.8,82,0.00,BKN,,0.00,WeatherDisplay:10.37,2013-02-16 08:08:00,
2013-02-16 03:13:00,59.1,53.6,29.94,North,350,3.6,5.8,82,0.00,BKN,,0.00,WeatherDisplay:10.37,2013-02-16 08:13:00,
2013-02-16 03:18:00,59.1,53.6,29.94,NNW,345,2.9,4.0,82,0.00,BKN,,0.00,WeatherDisplay:10.37,2013-02-16 08:18:00,
2013-02-16 03:23:00,59.1,53.6,29.94,North,1,5.0,9.2,82,0.00,BKN,,0.00,WeatherDisplay:10.37,2013-02-16 08:23:00,
2013-02-16 03:28:00,59.2,53.7,29.94,NNW,333,5.9,11.5,82,0.00,BKN,,0.00,WeatherDisplay:10.37,2013-02-16 08:28:00,
2013-02-16 03:33:00,59.1,53.6,29.93,North,351,4.4,6.9,82,0.00,FEW,,0.00,WeatherDisplay:10.37,2013-02-16 08:33:00,
2013-02-16 03:38:00,59.1,53.6,29.93,North,354,3.0,6.9,82,0.00,FEW,,0.00,WeatherDisplay:10.37,2013-02-16 08:38:00,
2013-02-16 03:43:00,59.0,53.5,29.93,NNW,341,2.2,5.8,82,0.00,FEW,,0.00,WeatherDisplay:10.37,2013-02-16 08:43:00,
2013-02-16 03:48:00,58.9,53.4,29.94,NW,326,2.7,4.6,82,0.00,FEW,,0.00,WeatherDisplay:10.37,2013-02-16 08:48:00,
2013-02-16 03:53:00,58.8,53.3,29.94,NNE,15,3.9,6.9,82,0.00,FEW,,0.00,WeatherDisplay:10.37,2013-02-16 08:53:00,
2013-02-16 03:58:00,58.7,53.5,29.94,North,5,2.5,6.9,83,0.00,FEW,,0.00,WeatherDisplay:10.37,2013-02-16 08:58:00,
2013-02-16 04:03:00,58.7,53.5,29.94,NNE,27,3.9,5.8,83,0.00,FEW,,0.00,WeatherDisplay:10.37,2013-02-16 09:03:00,
2013-02-16 04:08:00,58.7,53.2,29.94,North,358,6.2,13.0,82,0.00,FEW,,0.00,WeatherDisplay:10.37,2013-02-16 09:08:00,
2013-02-16 04:13:00,58.7,52.9,29.94,NW,324,7.0,7.0,81,0.00,FEW,,0.00,WeatherDisplay:10.37,2013-02-16 09:13:00,
2013-02-16 04:18:00,58.6,52.8,29.94,NNW,348,2.6,6.9,81,0.00,FEW,,0.00,WeatherDisplay:10.37,2013-02-16 09:18:00,
2013-02-16 04:23:00,58.5,53.0,29.93,NW,321,2.6,6.9,82,0.00,FEW,,0.00,WeatherDisplay:10.37,2013-02-16 09:23:00,
2013-02-16 04:28:00,58.3,52.8,29.93,NNW,341,2.8,5.8,82,0.00,FEW,,0.00,WeatherDisplay:10.37,2013-02-16 09:28:00,
2013-02-16 04:33:00,58.2,52.7,29.93,NNW,338,5.5,6.9,82,0.00,FEW,,0.00,WeatherDisplay:10.37,2013-02-16 09:33:00,
2013-02-16 04:38:00,58.3,52.5,29.93,NNW,347,6.2,9.2,81,0.00,FEW,,0.00,WeatherDisplay:10.37,2013-02-16 09:38:00,
2013-02-16 04:43:00,58.3,52.2,29.93,North,358,5.2,6.9,80,0.00,FEW,,0.00,WeatherDisplay:10.37,2013-02-16 09:43:00,
2013-02-16 04:48:00,58.3,51.8,29.93,NNE,20,4.1,6.9,79,0.00,FEW,,0.00,WeatherDisplay:10.37,2013-02-16 09:48:00,
2013-02-16 04:53:00,58.3,51.8,29.93,NW,325,3.7,4.6,79,0.00,FEW,,0.00,WeatherDisplay:10.37,2013-02-16 09:53:00,
2013-02-16 07:59:00,55.8,50.1,29.95,NNE,15,1.0,6.9,81,0.00,FEW,,0.00,WeatherDisplay:10.37,2013-02-16 12:59:00,
2013-02-16 08:04:00,56.0,50.6,29.95,NNE,29,0.7,2.3,82,0.00,FEW,,0.00,WeatherDisplay:10.37,2013-02-16 13:04:00,
2013-02-16 08:09:00,56.4,51.0,29.95,NE,34,0.0,0.0,82,0.00,FEW,,0.00,WeatherDisplay:10.37,2013-02-16 13:09:00,
2013-02-16 08:14:00,56.6,50.8,29.96,NNE,28,0.9,2.3,81,0.00,FEW,,0.00,WeatherDisplay:10.37,2013-02-16 13:14:00,
2013-02-16 08:19:00,56.9,51.1,29.96,NNE,27,0.3,1.1,81,0.00,FEW,,0.00,WeatherDisplay:10.37,2013-02-16 13:19:00,
2013-02-16 08:24:00,57.2,51.4,29.96,NE,46,0.8,1.0,81,0.00,FEW,,0.00,WeatherDisplay:10.37,2013-02-16 13:24:00,
2013-02-16 08:29:00,57.6,51.1,29.96,NNW,341,2.1,3.5,79,0.00,FEW,,0.00,WeatherDisplay:10.37,2013-02-16 13:29:00,
2013-02-16 08:34:00,57.9,51.4,29.96,NNE,27,0.9,3.5,79,0.00,FEW,,0.00,WeatherDisplay:10.37,2013-02-16 13:34:00,
2013-02-16 08:39:00,58.4,51.9,29.96,NE,41,2.4,3.5,79,0.00,FEW,,0.00,WeatherDisplay:10.37,2013-02-16 13:39:00,
2013-02-16 08:44:00,59.2,51.6,29.96,North,353,5.1,9.0,76,0.00,FEW,,0.00,WeatherDisplay:10.37,2013-02-16 13:44:00,
2013-02-16 08:49:00,59.8,50.8,29.97,NNW,338,6.8,9.2,72,0.00,FEW,,0.00,WeatherDisplay:10.37,2013-02-16 13:49:00,
2013-02-16 08:54:00,60.3,51.2,29.97,NNW,338,2.2,4.6,72,0.00,CLR,,0.00,WeatherDisplay:10.37,2013-02-16 13:54:00,
2013-02-16 08:59:00,60.7,51.6,29.97,NNW,338,3.0,3.5,72,0.00,CLR,,0.00,WeatherDisplay:10.37,2013-02-16 13:59:00,
2013-02-16 09:04:00,60.9,51.4,29.97,North,351,3.8,8.1,71,0.00,CLR,,0.00,WeatherDisplay:10.37,2013-02-16 14:04:00,
2013-02-16 09:09:00,61.2,51.3,29.97,NNW,338,1.6,5.0,70,0.00,CLR,,0.00,WeatherDisplay:10.37,2013-02-16 14:09:00,
2013-02-16 09:14:00,61.4,51.5,29.97,NNE,18,7.6,10.4,70,0.00,CLR,,0.00,WeatherDisplay:10.37,2013-02-16 14:14:00,
2013-02-16 09:19:00,61.5,51.6,29.97,NNW,342,3.8,5.8,70,0.00,CLR,,0.00,WeatherDisplay:10.37,2013-02-16 14:19:00,
2013-02-16 09:24:00,61.5,51.2,29.97,NNW,335,3.7,5.8,69,0.00,CLR,,0.00,WeatherDisplay:10.37,2013-02-16 14:24:00,
2013-02-16 09:29:00,61.9,52.0,29.98,North,11,3.8,5.8,70,0.00,CLR,,0.00,WeatherDisplay:10.37,2013-02-16 14:29:00,
2013-02-16 09:34:00,62.0,52.1,29.98,NW,325,1.7,2.3,70,0.00,CLR,,0.00,WeatherDisplay:10.37,2013-02-16 14:34:00,
2013-02-16 09:39:00,62.5,51.8,29.98,NNW,335,3.5,4.6,68,0.00,CLR,,0.00,WeatherDisplay:10.37,2013-02-16 14:39:00,
2013-02-16 09:44:00,62.8,51.7,29.98,North,4,2.7,5.8,67,0.00,CLR,,0.00,WeatherDisplay:10.37,2013-02-16 14:44:00,
2013-02-16 09:50:00,62.9,51.8,29.98,WNW,288,5.5,11.0,67,0.00,CLR,,0.00,WeatherDisplay:10.37,2013-02-16 14:50:00,
2013-02-16 09:55:00,62.6,51.9,29.98,West,266,2.1,6.0,68,0.00,CLR,,0.00,WeatherDisplay:10.37,2013-02-16 14:55:00,
2013-02-16 11:43:00,65.8,47.7,30.00,WNW,290,0.0,8.0,52,0.00,CLR,,0.00,WeatherDisplay:10.37,2013-02-16 16:43:00,
2013-02-16 11:48:00,66.0,48.4,30.00,WNW,283,6.8,12.7,53,0.00,CLR,,0.00,WeatherDisplay:10.37,2013-02-16 16:48:00,
2013-02-16 11:53:00,66.2,48.0,30.00,NNE,18,6.0,8.1,52,0.00,CLR,,0.00,WeatherDisplay:10.37,2013-02-16 16:53:00,
2013-02-16 11:58:00,66.4,48.7,30.00,WNW,301,5.9,10.4,53,0.00,CLR,,0.00,WeatherDisplay:10.37,2013-02-16 16:58:00,
2013-02-16 12:03:00,66.8,49.1,29.99,NNE,19,4.1,6.0,53,0.00,CLR,,0.00,WeatherDisplay:10.37,2013-02-16 17:03:00,
2013-02-16 12:08:00,66.6,49.4,29.99,WNW,298,1.9,4.6,54,0.00,CLR,,0.00,WeatherDisplay:10.37,2013-02-16 17:08:00,
2013-02-16 12:13:00,67.1,48.9,29.99,NNW,328,3.3,8.1,52,0.00,CLR,,0.00,WeatherDisplay:10.37,2013-02-16 17:13:00,
2013-02-16 12:18:00,66.6,49.4,29.98,NNE,30,3.9,8.1,54,0.00,CLR,,0.00,WeatherDisplay:10.37,2013-02-16 17:18:00,
2013-02-16 12:43:00,67.4,49.2,29.97,NNW,343,4.0,15.0,52,0.00,CLR,,0.00,WeatherDisplay:10.37,2013-02-16 17:43:00,
2013-02-16 12:48:00,67.3,49.6,29.97,NW,316,3.1,6.9,53,0.00,CLR,,0.00,WeatherDisplay:10.37,2013-02-16 17:48:00,
2013-02-16 12:53:00,67.4,49.2,29.97,NNE,27,3.2,6.9,52,0.00,FEW,,0.00,WeatherDisplay:10.37,2013-02-16 17:53:00,
2013-02-16 12:58:00,67.4,49.2,29.97,WNW,291,5.1,6.0,52,0.00,FEW,,0.00,WeatherDisplay:10.37,2013-02-16 17:58:00,
2013-02-16 13:03:00,67.9,49.1,29.97,NNW,330,3.2,5.0,51,0.00,FEW,,0.00,WeatherDisplay:10.37,2013-02-16 18:03:00,
2013-02-16 13:08:00,68.3,48.9,29.96,North,353,5.0,11.5,50,0.00,FEW,,0.00,WeatherDisplay:10.37,2013-02-16 18:08:00,
2013-02-16 13:13:00,67.7,48.9,29.96,North,349,4.5,11.0,51,0.00,FEW,,0.00,WeatherDisplay:10.37,2013-02-16 18:13:00,
2013-02-16 13:18:00,67.0,48.8,29.96,North,354,3.0,4.6,52,0.00,FEW,,0.00,WeatherDisplay:10.37,2013-02-16 18:18:00,
2013-02-16 13:23:00,66.2,49.1,29.96,NE,56,4.7,11.5,54,0.00,CLR,,0.00,WeatherDisplay:10.37,2013-02-16 18:23:00,
2013-02-16 13:28:00,65.5,50.8,29.97,NW,309,7.2,12.7,59,0.00,CLR,,0.00,WeatherDisplay:10.37,2013-02-16 18:28:00,
2013-02-16 13:33:00,63.9,52.7,29.97,North,355,5.3,8.1,67,0.00,CLR,,0.00,WeatherDisplay:10.37,2013-02-16 18:33:00,
2013-02-16 13:38:00,63.0,52.7,29.97,NE,44,2.8,4.0,69,0.00,CLR,,0.00,WeatherDisplay:10.37,2013-02-16 18:38:00,
2013-02-16 13:43:00,62.4,52.5,29.97,NNW,346,5.2,12.7,70,0.00,CLR,,0.00,WeatherDisplay:10.37,2013-02-16 18:43:00,
2013-02-16 13:48:00,62.0,53.2,29.97,North,354,3.4,6.9,73,0.00,CLR,,0.00,WeatherDisplay:10.37,2013-02-16 18:48:00,
2013-02-16 13:53:00,61.9,52.8,29.96,NNW,347,5.4,10.4,72,0.00,CLR,,0.00,WeatherDisplay:10.37,2013-02-16 18:53:00,
2013-02-16 13:58:00,62.1,53.3,29.96,NNW,329,6.8,9.2,73,0.00,CLR,,0.00,WeatherDisplay:10.37,2013-02-16 18:58:00,
2013-02-16 14:03:00,62.4,54.4,29.97,NNE,23,5.0,12.7,75,0.00,CLR,,0.00,WeatherDisplay:10.37,2013-02-16 19:03:00,
2013-02-16 14:08:00,61.4,55.2,29.97,NNW,338,6.3,11.5,80,0.00,CLR,,0.00,WeatherDisplay:10.37,2013-02-16 19:08:00,
2013-02-16 14:13:00,60.4,55.2,29.97,North,352,5.6,8.1,83,0.00,CLR,,0.00,WeatherDisplay:10.37,2013-02-16 19:13:00,
2013-02-16 14:18:00,60.2,54.7,29.97,NW,323,3.4,7.0,82,0.00,CLR,,0.00,WeatherDisplay:10.37,2013-02-16 19:18:00,
2013-02-16 14:23:00,60.2,53.0,29.97,WNW,293,5.2,7.0,77,0.00,CLR,,0.00,WeatherDisplay:10.37,2013-02-16 19:23:00,
2013-02-16 14:28:00,60.1,51.8,29.97,NNW,342,7.1,15.0,74,0.00,CLR,,0.00,WeatherDisplay:10.37,2013-02-16 19:28:00,
2013-02-16 14:33:00,60.0,52.1,29.97,North,351,4.2,11.5,75,0.00,CLR,,0.00,WeatherDisplay:10.37,2013-02-16 19:33:00,
2013-02-16 14:38:00,59.0,53.8,29.97,North,354,7.4,11.5,83,0.04,CLR,,0.05,WeatherDisplay:10.37,2013-02-16 19:38:00,
2013-02-16 14:43:00,57.9,54.4,29.97,NNW,345,7.0,13.8,88,0.06,CLR,,0.06,WeatherDisplay:10.37,2013-02-16 19:43:00,
2013-02-16 14:48:00,57.5,54.0,29.98,NW,321,9.8,19.6,88,0.06,CLR,,0.06,WeatherDisplay:10.37,2013-02-16 19:48:00,
2013-02-16 14:53:00,57.3,53.1,29.98,NNW,328,10.2,12.7,86,0.06,-RA,,0.06,WeatherDisplay:10.37,2013-02-16 19:53:00,
2013-02-16 14:58:00,57.4,53.2,29.98,WNW,295,7.2,17.3,86,0.06,-RA,,0.06,WeatherDisplay:10.37,2013-02-16 19:58:00,
2013-02-16 15:03:00,57.7,52.2,29.99,NNW,327,10.7,16.1,82,0.06,-RA,,0.06,WeatherDisplay:10.37,2013-02-16 20:03:00,
2013-02-16 15:09:00,58.0,51.9,29.99,WNW,297,6.9,13.8,80,0.06,-RA,,0.06,WeatherDisplay:10.37,2013-02-16 20:09:00,
2013-02-16 15:14:00,58.1,50.9,29.99,North,358,10.0,23.0,77,0.06,-RA,,0.06,WeatherDisplay:10.37,2013-02-16 20:14:00,
2013-02-16 15:19:00,58.3,50.4,29.99,NNW,341,16.4,23.0,75,0.06,-RA,,0.06,WeatherDisplay:10.37,2013-02-16 20:19:00,
2013-02-16 15:24:00,58.4,50.5,29.99,NNE,13,8.2,13.8,75,0.06,-RA,,0.06,WeatherDisplay:10.37,2013-02-16 20:24:00,
2013-02-16 15:29:00,58.4,50.5,29.99,NNW,338,9.6,11.5,75,0.06,-RA,,0.06,WeatherDisplay:10.37,2013-02-16 20:29:00,
2013-02-16 15:34:00,58.5,50.2,29.99,NNW,343,6.7,10.0,74,0.06,-RA,,0.06,WeatherDisplay:10.37,2013-02-16 20:34:00,
2013-02-16 15:39:00,59.0,50.7,29.99,NNW,336,8.9,16.1,74,0.01,-RA,,0.06,WeatherDisplay:10.37,2013-02-16 20:39:00,
2013-02-16 15:44:00,59.2,50.5,29.99,North,358,6.8,12.7,73,0.00,-RA,,0.06,WeatherDisplay:10.37,2013-02-16 20:44:00,
2013-02-16 15:49:00,59.4,50.4,29.99,North,360,8.8,19.6,72,0.00,-RA,,0.06,WeatherDisplay:10.37,2013-02-16 20:49:00,
2013-02-16 15:54:00,58.7,49.7,30.00,North,4,6.8,11.5,72,0.00,-RA,,0.06,WeatherDisplay:10.37,2013-02-16 20:54:00,
2013-02-16 15:59:00,58.6,50.0,30.00,NW,315,9.1,17.3,73,0.00,-RA,,0.06,WeatherDisplay:10.37,2013-02-16 20:59:00,
2013-02-16 16:04:00,58.7,50.4,30.00,North,6,8.0,13.8,74,0.00,-RA,,0.06,WeatherDisplay:10.37,2013-02-16 21:04:00,
2013-02-16 16:09:00,58.5,49.5,30.00,NNW,347,9.7,16.1,72,0.00,-RA,,0.06,WeatherDisplay:10.37,2013-02-16 21:09:00,
2013-02-16 16:14:00,58.3,49.7,30.00,North,355,9.3,15.0,73,0.00,-RA,,0.06,WeatherDisplay:10.37,2013-02-16 21:14:00,
2013-02-16 16:19:00,58.4,50.1,30.00,NNE,14,2.9,4.6,74,0.00,-RA,,0.06,WeatherDisplay:10.37,2013-02-16 21:19:00,
2013-02-16 17:24:00,57.5,47.8,30.01,NE,44,11.0,20.0,70,0.00,-RA,,0.00,WeatherDisplay:10.37,2013-02-16 22:24:00,
2013-02-16 17:29:00,57.4,48.8,30.01,NNW,339,2.6,4.6,73,0.00,-RA,,0.00,WeatherDisplay:10.37,2013-02-16 22:29:00,
2013-02-16 17:34:00,57.3,48.0,30.00,NNW,338,5.6,10.4,71,0.00,-RA,,0.00,WeatherDisplay:10.37,2013-02-16 22:34:00,
2013-02-16 17:39:00,57.3,48.0,30.01,NNW,348,5.4,10.4,71,0.00,-RA,,0.00,WeatherDisplay:10.37,2013-02-16 22:39:00,
2013-02-16 17:44:00,57.2,47.9,30.01,NW,325,9.0,13.8,71,0.00,-RA,,0.00,WeatherDisplay:10.37,2013-02-16 22:44:00,
2013-02-16 17:49:00,57.2,47.9,30.00,NNW,328,5.9,11.5,71,0.00,-RA,,0.00,WeatherDisplay:10.37,2013-02-16 22:49:00,
2013-02-16 17:54:00,57.2,48.3,30.01,NNW,342,4.8,10.4,72,0.00,-RA,,0.00,WeatherDisplay:10.37,2013-02-16 22:54:00,
2013-02-16 17:59:00,57.2,47.9,30.01,West,276,4.1,17.3,71,0.00,-RA,,0.00,WeatherDisplay:10.37,2013-02-16 22:59:00,
2013-02-16 18:04:00,57.1,47.8,30.01,NNE,20,2.8,5.8,71,0.00,-RA,,0.00,WeatherDisplay:10.37,2013-02-16 23:04:00,
2013-02-16 18:09:00,57.1,47.0,30.01,NNW,335,7.0,12.7,69,0.00,-RA,,0.00,WeatherDisplay:10.37,2013-02-16 23:09:00,
2013-02-16 18:14:00,57.1,47.0,30.01,North,8,3.9,11.5,69,0.00,SCT,,0.00,WeatherDisplay:10.37,2013-02-16 23:14:00,
2013-02-16 18:19:00,57.0,47.3,30.01,NW,315,3.1,10.4,70,0.00,SCT,,0.00,WeatherDisplay:10.37,2013-02-16 23:19:00,
2013-02-16 18:24:00,57.1,47.4,30.02,NW,312,3.1,6.9,70,0.00,SCT,,0.00,WeatherDisplay:10.37,2013-02-16 23:24:00,
2013-02-16 18:29:00,57.0,46.9,30.02,NW,321,5.8,11.5,69,0.00,SCT,,0.00,WeatherDisplay:10.37,2013-02-16 23:29:00,
2013-02-16 18:34:00,57.1,46.6,30.02,NNW,335,3.1,5.0,68,0.00,SCT,,0.00,WeatherDisplay:10.37,2013-02-16 23:34:00,
2013-02-16 18:39:00,57.2,46.7,30.02,NNE,32,3.1,7.0,68,0.00,SCT,,0.00,WeatherDisplay:10.37,2013-02-16 23:39:00,
2013-02-16 18:44:00,57.3,48.0,30.02,NNE,22,5.3,8.1,71,0.00,SCT,,0.00,WeatherDisplay:10.37,2013-02-16 23:44:00,
2013-02-16 18:49:00,57.4,46.5,30.02,NW,316,7.4,11.5,67,0.00,SCT,,0.00,WeatherDisplay:10.37,2013-02-16 23:49:00,
2013-02-16 18:54:00,57.7,46.8,30.02,NNW,333,2.4,5.8,67,0.00,SCT,,0.00,WeatherDisplay:10.37,2013-02-16 23:54:00,
2013-02-16 18:59:00,57.6,45.5,30.02,North,355,5.1,16.1,64,0.00,SCT,,0.00,WeatherDisplay:10.37,2013-02-16 23:59:00,
2013-02-16 19:04:00,57.6,45.9,30.02,NNW,338,4.7,12.7,65,0.00,SCT,,0.00,WeatherDisplay:10.37,2013-02-17 00:04:00,
2013-02-16 19:09:00,57.6,46.3,30.03,NW,318,6.8,13.0,66,0.00,SCT,,0.00,WeatherDisplay:10.37,2013-02-17 00:09:00,
2013-02-16 19:14:00,57.7,45.2,30.03,NNE,33,6.7,13.8,63,0.00,SCT,,0.00,WeatherDisplay:10.37,2013-02-17 00:14:00,
2013-02-16 19:45:00,57.4,39.4,30.04,NW,308,6.6,14.0,51,0.00,SCT,,0.00,WeatherDisplay:10.37,2013-02-17 00:45:00,
2013-02-16 19:50:00,57.4,39.9,30.04,NNW,342,4.9,11.5,52,0.00,SCT,,0.00,WeatherDisplay:10.37,2013-02-17 00:50:00,
2013-02-16 19:55:00,57.4,40.9,30.05,West,281,3.4,13.8,54,0.00,BKN,,0.00,WeatherDisplay:10.37,2013-02-17 00:55:00,
2013-02-16 20:00:00,57.4,40.9,30.05,NNE,21,4.6,10.4,54,0.00,BKN,,0.00,WeatherDisplay:10.37,2013-02-17 01:00:00,
2013-02-16 20:05:00,57.3,40.8,30.05,West,278,3.5,6.9,54,0.00,BKN,,0.00,WeatherDisplay:10.37,2013-02-17 01:05:00,
2013-02-16 20:10:00,57.2,40.2,30.05,NW,308,2.9,5.0,53,0.00,BKN,,0.00,WeatherDisplay:10.37,2013-02-17 01:10:00,
2013-02-16 20:15:00,57.3,39.8,30.05,NW,323,7.9,17.3,52,0.00,BKN,,0.00,WeatherDisplay:10.37,2013-02-17 01:15:00,
2013-02-16 20:20:00,57.3,40.3,30.05,WNW,291,2.6,8.1,53,0.00,BKN,,0.00,WeatherDisplay:10.37,2013-02-17 01:20:00,
2013-02-16 20:25:00,57.4,38.9,30.05,WNW,301,4.1,6.9,50,0.00,BKN,,0.00,WeatherDisplay:10.37,2013-02-17 01:25:00,
2013-02-16 20:30:00,57.4,39.9,30.06,NNE,26,2.6,11.5,52,0.00,BKN,,0.00,WeatherDisplay:10.37,2013-02-17 01:30:00,
2013-02-16 20:35:00,57.4,40.9,30.06,WNW,297,6.0,10.4,54,0.00,BKN,,0.00,WeatherDisplay:10.37,2013-02-17 01:35:00,
2013-02-16 20:40:00,57.5,41.4,30.06,West,273,3.6,6.9,55,0.00,BKN,,0.00,WeatherDisplay:10.37,2013-02-17 01:40:00,
2013-02-16 20:45:00,57.5,42.4,30.06,West,281,3.7,10.4,57,0.00,BKN,,0.00,WeatherDisplay:10.37,2013-02-17 01:45:00,
2013-02-16 20:50:00,57.4,42.3,30.07,NW,305,4.7,6.9,57,0.00,BKN,,0.00,WeatherDisplay:10.37,2013-02-17 01:50:00,
2013-02-16 20:55:00,57.5,41.4,30.07,NNW,338,5.0,11.5,55,0.00,BKN,,0.00,WeatherDisplay:10.37,2013-02-17 01:55:00,
2013-02-16 21:00:00,57.4,41.4,30.07,NNW,335,6.2,13.8,55,0.00,BKN,,0.00,WeatherDisplay:10.37,2013-02-17 02:00:00,
2013-02-16 21:05:00,57.4,40.9,30.07,NNW,331,3.9,9.2,54,0.00,BKN,,0.00,WeatherDisplay:10.37,2013-02-17 02:05:00,
2013-02-16 21:10:00,57.4,40.4,30.08,NW,308,5.0,13.8,53,0.00,BKN,,0.00,WeatherDisplay:10.37,2013-02-17 02:10:00,
2013-02-16 21:15:00,57.5,41.0,30.08,NW,321,6.7,18.4,54,0.00,BKN,,0.00,WeatherDisplay:10.37,2013-02-17 02:15:00,
2013-02-16 21:20:00,57.6,40.1,30.08,North,350,3.9,15.0,52,0.00,BKN,,0.00,WeatherDisplay:10.37,2013-02-17 02:20:00,
2013-02-16 21:25:00,57.4,39.9,30.08,NW,309,3.2,3.5,52,0.00,BKN,,0.00,WeatherDisplay:10.37,2013-02-17 02:25:00,
2013-02-16 21:30:00,57.4,39.4,30.08,East,91,2.4,8.0,51,0.00,BKN,,0.00,WeatherDisplay:10.37,2013-02-17 02:30:00,
2013-02-16 21:35:00,57.5,39.5,30.08,WNW,284,4.7,6.9,51,0.00,BKN,,0.00,WeatherDisplay:10.37,2013-02-17 02:35:00,
2013-02-16 21:40:00,57.4,39.4,30.08,North,11,3.4,6.9,51,0.00,BKN,,0.00,WeatherDisplay:10.37,2013-02-17 02:40:00,
2013-02-16 21:45:00,57.3,40.8,30.08,NNW,332,8.1,11.5,54,0.00,BKN,,0.00,WeatherDisplay:10.37,2013-02-17 02:45:00,
2013-02-16 21:50:00,57.3,41.3,30.09,WSW,245,4.5,9.2,55,0.00,BKN,,0.00,WeatherDisplay:10.37,2013-02-17 02:50:00,
2013-02-16 21:55:00,57.2,40.7,30.09,North,351,4.9,13.8,54,0.00,BKN,,0.00,WeatherDisplay:10.37,2013-02-17 02:55:00,
2013-02-16 22:00:00,57.2,40.7,30.09,North,354,4.9,5.8,54,0.00,BKN,,0.00,WeatherDisplay:10.37,2013-02-17 03:00:00,
2013-02-16 22:05:00,57.2,41.6,30.09,WNW,301,6.8,12.7,56,0.00,BKN,,0.00,WeatherDisplay:10.37,2013-02-17 03:05:00,
2013-02-16 22:10:00,57.1,40.1,30.09,NNW,335,5.9,12.7,53,0.00,BKN,,0.00,WeatherDisplay:10.37,2013-02-17 03:10:00,
2013-02-16 22:15:00,57.0,39.5,30.09,NNW,328,4.8,6.0,52,0.00,BKN,,0.00,WeatherDisplay:10.37,2013-02-17 03:15:00,
2013-02-16 22:20:00,57.0,39.5,30.09,WNW,301,3.8,8.1,52,0.00,BKN,,0.00,WeatherDisplay:10.37,2013-02-17 03:20:00,
2013-02-16 22:25:00,56.9,39.4,30.09,NW,314,6.5,9.2,52,0.00,BKN,,0.00,WeatherDisplay:10.37,2013-02-17 03:25:00,
2013-02-16 22:30:00,56.9,39.9,30.09,NW,314,3.9,5.8,53,0.00,BKN,,0.00,WeatherDisplay:10.37,2013-02-17 03:30:00,
2013-02-16 22:35:00,56.9,40.9,30.09,North,350,9.5,17.3,55,0.00,BKN,,0.00,WeatherDisplay:10.37,2013-02-17 03:35:00,
2013-02-16 22:40:00,56.7,41.2,30.09,NNW,339,8.1,15.0,56,0.00,BKN,,0.00,WeatherDisplay:10.37,2013-02-17 03:40:00,
2013-02-16 22:45:00,56.7,41.6,30.09,NW,311,5.4,9.0,57,0.00,BKN,,0.00,WeatherDisplay:10.37,2013-02-17 03:45:00,
2013-02-16 22:50:00,56.7,41.2,30.10,WNW,287,3.7,10.4,56,0.00,BKN,,0.00,WeatherDisplay:10.37,2013-02-17 03:50:00,
2013-02-16 22:55:00,56.5,40.0,30.10,NNW,329,7.4,13.8,54,0.00,BKN,,0.00,WeatherDisplay:10.37,2013-02-17 03:55:00,
2013-02-16 23:00:00,56.4,40.4,30.10,NE,41,5.4,17.3,55,0.00,BKN,,0.00,WeatherDisplay:10.37,2013-02-17 04:00:00,
2013-02-16 23:05:00,56.4,40.0,30.10,North,360,9.3,16.0,54,0.00,BKN,,0.00,WeatherDisplay:10.37,2013-02-17 04:05:00,
2013-02-16 23:10:00,56.2,39.8,30.10,NW,304,5.5,8.1,54,0.00,BKN,,0.00,WeatherDisplay:10.37,2013-02-17 04:10:00,
2013-02-16 23:15:00,56.2,40.2,30.11,NW,304,5.7,11.5,55,0.00,BKN,,0.00,WeatherDisplay:10.37,2013-02-17 04:15:00,
2013-02-16 23:20:00,56.1,39.7,30.10,NW,319,6.8,11.5,54,0.00,BKN,,0.00,WeatherDisplay:10.37,2013-02-17 04:20:00,
2013-02-16 23:25:00,56.1,39.7,30.10,NW,323,10.4,19.6,54,0.00,BKN,,0.00,WeatherDisplay:10.37,2013-02-17 04:25:00,
2013-02-16 23:30:00,56.0,39.1,30.11,North,352,8.2,18.4,53,0.00,BKN,,0.00,WeatherDisplay:10.37,2013-02-17 04:30:00,
2013-02-16 23:35:00,55.9,38.5,30.11,NNW,338,9.9,17.3,52,0.00,BKN,,0.00,WeatherDisplay:10.37,2013-02-17 04:35:00,
2013-02-16 23:40:00,55.8,38.9,30.10,North,1,8.4,9.2,53,0.00,BKN,,0.00,WeatherDisplay:10.37,2013-02-17 04:40:00,
2013-02-16 23:46:00,55.7,38.8,30.11,NNE,21,11.9,15.0,53,0.00,BKN,,0.00,WeatherDisplay:10.37,2013-02-17 04:46:00,
2013-02-16 23:51:00,55.7,38.3,30.11,NNW,343,10.4,16.1,52,0.00,BKN,,0.00,WeatherDisplay:10.37,2013-02-17 04:51:00,
2013-02-16 23:56:00,55.5,37.7,30.11,WNW,291,6.7,10.4,51,0.00,BKN,,0.00,WeatherDisplay:10.37,2013-02-17 04:56:00,